LiveATC.Net - Listen to live air traffic control over the Internet!


ICAO: KBJC  IATA: BJC   Airport: Rocky Mountain Metropolitan Airport
City: Denver   State/Province: Colorado
Country: United States   Continent: North America
KBJC METAR Weather: KBJC 121115Z AUTO 00000KT 5SM BR CLR 02/02 A3027 RMK AO2
KBJC Flight Activity (FlightAware)
KBJC Webcam:  (Airport Webcams) 
KBJC Airport Info   (iFlightPlanner)
KBJC VFR Sectional Chart   (iFlightPlanner) 
KBJC IFR Low Chart   (iFlightPlanner) 

KBJC Ground/Tower
Feed Status: UP   Listeners: 0
Listen in your browser - HTML5 player (in browser, HTML5)
Click here to listen with your own player (launches your MP3 player)
Archive Access: KBJC Ground/Tower
FacilityFrequency
Metro Ground121.700
Metro Tower118.600
Feed sponsored by: Colorado Heli-Ops

NOTICE

Unauthorized use prohibited. See LiveATC.net Terms of Service


Airport/ARTCC Code
Frequency Search
(e.g., 124.400, 128.75)
Site-wide search
 


Browse Feeds
Top 50 Feeds
HF Oceanic Feeds
Coverage Map
Bad Weather Areas

LiveATC FAQ
Offer LiveATC feed
Contact LiveATC.net
Press Inquiries

LiveATC on iPhone
LiveATC on Android

Windows Phone
Windows 8/10

LiveATC Mobile
(Mobile browser)

ATC Audio Archives
Interesting Recordings

LiveATC Forums


Home Page
About LiveATC.net
Make a Donation
Terms of Use
Privacy Policy

Canadian Air Freqs

AIRMETs/SIGMETs

FAA Airport Status
NAS Status
Arrival Demand


Server Software By:
Icecast.org
Liquidsoap